Le nostre stazioni meteo in Italia

Pubblicità
Il mio iltempo24.it
Catania/Fontanarossa, Italia (16460): Temperatura & dewpoint: 13.04.2019 17:00:00 - 19.04.2019 17:00:00 (CEST)Catania/Fontanarossa, Italia (16460): velocità del vento: 13.04.2019 17:00:00 - 19.04.2019 17:00:00 (CEST)Catania/Fontanarossa, Italia (16460): direzione del vento: 13.04.2019 17:00:00 - 19.04.2019 17:00:00 (CEST)Catania/Fontanarossa, Italia (16460): reduced air pressure: 13.04.2019 17:00:00 - 19.04.2019 17:00:00 (CEST)Catania/Fontanarossa, Italia (16460): visibility: 13.04.2019 17:00:00 - 19.04.2019 17:00:00 (CEST)Catania/Fontanarossa, Italia (16460): precipitazioni: 13.04.2019 17:00:00 - 19.04.2019 17:00:00 (CEST)
Data & Tempo tt [°C] td [°C] ff [km/h] ff [kn] dd ppp [hPa] vv [km] rr [mm]
19.04.2019 17:00:00 - - - - - - - -
19.04.2019 16:00:00 18,0 13,0 15 8 E - 10 -
19.04.2019 15:00:00 18,0 13,0 18 10 ESE - 10 -
19.04.2019 14:00:00 18,0 11,6 21 11 E 1026,6 10 -
19.04.2019 13:00:00 18,0 12,0 21 11 E - 10 -
19.04.2019 12:00:00 18,0 12,0 21 11 E - 10 -
19.04.2019 11:00:00 17,9 11,3 24 13 E 1026,7 10 0,0
19.04.2019 10:00:00 17,0 12,0 21 11 E - 10 -
19.04.2019 09:00:00 14,0 13,0 5 3 SO - 10 -
19.04.2019 08:00:00 10,7 10,5 8 4 OSO 1025,5 7 -
19.04.2019 07:00:00 7,0 7,0 5 3 SO - 5 -
19.04.2019 06:00:00 7,0 7,0 8 4 OSO - 4,0 -
19.04.2019 05:00:00 8,1 8,1 5 3 - 1024,4 10 0,0
19.04.2019 04:00:00 8,0 8,0 9 5 OSO - 10 -
19.04.2019 03:00:00 12,0 12,0 2 1 - - 10 -
19.04.2019 02:00:00 12,7 12,5 5 3 NE 1024,2 10 -
19.04.2019 01:00:00 13,0 13,0 2 1 - - 10 -
19.04.2019 00:00:00 14,0 14,0 9 5 NE - 10 -
18.04.2019 23:00:00 14,3 13,6 9 5 ENE 1023,9 10 0,0
18.04.2019 22:00:00 15,0 14,0 11 6 ENE - 10 -
18.04.2019 21:00:00 15,0 14,0 13 7 ENE - 10 -
18.04.2019 20:00:00 15,3 14,0 13 7 ENE 1021,8 10 -
18.04.2019 19:00:00 16,0 14,0 15 8 E - 10 -
18.04.2019 18:00:00 17,0 14,0 18 10 E - 10 -
18.04.2019 17:00:00 17,7 14,1 18 10 E 1021,4 10 0,0
18.04.2019 16:00:00 18,0 14,0 18 10 E - 10 -
18.04.2019 15:00:00 18,0 14,0 16 9 E - 10 -
18.04.2019 14:00:00 18,5 12,5 16 9 E 1021,6 10 -
18.04.2019 13:00:00 19,0 11,0 18 10 E - 10 -
18.04.2019 12:00:00 18,0 12,0 18 10 E - 10 -
18.04.2019 11:00:00 18,1 8,8 11 6 ENE 1022,0 10 0,0
18.04.2019 10:00:00 16,0 9,0 5 3 SO - 10 -
18.04.2019 09:00:00 13,0 10,0 15 8 OSO - 10 -
18.04.2019 08:00:00 10,1 9,2 5 3 SSO 1021,1 10 -
18.04.2019 07:00:00 7,0 7,0 5 3 SO - 6 -
18.04.2019 06:00:00 8,0 8,0 5 3 SO - 10 -
18.04.2019 05:00:00 8,2 7,8 9 5 O 1020,0 10 0,0
18.04.2019 04:00:00 9,0 9,0 4 2 - - 7 -
18.04.2019 03:00:00 9,0 9,0 11 6 OSO - 7 -
18.04.2019 02:00:00 9,7 9,4 11 6 OSO 1020,9 10 -
18.04.2019 01:00:00 10,0 10,0 9 5 O - 10 -
18.04.2019 00:00:00 12,0 10,0 5 3 OSO - 10 -
17.04.2019 23:00:00 13,5 9,8 4 2 - 1020,8 10 0,0
17.04.2019 22:00:00 15,0 10,0 5 3 SO - 10 -
17.04.2019 21:00:00 16,0 10,0 4 2 E - 10 -
17.04.2019 20:00:00 15,6 10,0 8 4 E 1019,3 10 -
17.04.2019 19:00:00 16,0 9,0 5 3 E - 10 -
17.04.2019 18:00:00 17,0 9,0 4 2 - - 10 -
17.04.2019 17:00:00 16,5 10,9 11 6 E 1019,1 10 0,0
17.04.2019 16:00:00 16,0 10,0 16 9 E - 10 -
17.04.2019 15:00:00 17,0 11,0 21 11 ENE - 10 -
17.04.2019 14:00:00 17,3 10,8 22 12 ENE 1019,4 10 -
17.04.2019 13:00:00 17,0 12,0 22 12 ENE - 10 -
17.04.2019 12:00:00 18,0 11,0 18 10 E - 10 -
17.04.2019 11:00:00 18,7 12,2 11 6 E 1019,7 10 0,0
17.04.2019 10:00:00 18,0 11,0 5 3 O - 10 -
17.04.2019 09:00:00 15,0 13,0 11 6 O - 10 -
17.04.2019 08:00:00 13,1 12,6 8 4 O 1019,4 10 -
17.04.2019 07:00:00 12,0 12,0 11 6 OSO - 10 -
17.04.2019 06:00:00 12,0 12,0 11 6 O - 10 -
17.04.2019 05:00:00 12,2 11,1 9 5 O 1018,8 10 0,0
17.04.2019 04:00:00 12,0 11,0 8 4 SO - 10 -
17.04.2019 03:00:00 13,0 11,0 11 6 O - 10 -
17.04.2019 02:00:00 12,2 10,0 8 4 ONO 1019,4 10 -
17.04.2019 01:00:00 13,0 10,0 13 7 O - 10 -
17.04.2019 00:00:00 15,0 9,0 15 8 O - 10 -
16.04.2019 23:00:00 14,8 9,8 11 6 O 1020,3 10 0,0
16.04.2019 22:00:00 16,0 10,0 8 4 NE - 10 -
16.04.2019 21:00:00 17,0 10,0 4 2 - - 10 -
16.04.2019 20:00:00 16,5 10,3 13 7 NE 1019,8 10 -
16.04.2019 19:00:00 17,0 11,0 11 6 ENE - 10 -
16.04.2019 18:00:00 18,0 11,0 13 7 ESE - 10 -
16.04.2019 17:00:00 18,2 8,0 21 11 SSE 1018,9 10 0,0
16.04.2019 16:00:00 18,0 8,0 21 11 SE - 10 -
16.04.2019 15:00:00 18,0 9,0 21 11 SE - 10 -
16.04.2019 14:00:00 18,8 8,6 22 12 SE 1020,2 10 -
16.04.2019 13:00:00 19,0 8,0 18 10 SE - 10 -
16.04.2019 12:00:00 19,0 8,0 5 3 - - 10 -
16.04.2019 11:00:00 18,0 7,4 13 7 SO 1020,6 10 0,0
16.04.2019 10:00:00 16,0 10,0 11 6 SO - 10 -
16.04.2019 09:00:00 12,0 9,0 13 7 OSO - 10 -
16.04.2019 08:00:00 9,3 7,6 5 3 SO 1019,5 10 -
16.04.2019 07:00:00 6,0 5,0 9 5 OSO - 10 -
16.04.2019 06:00:00 6,0 5,0 8 4 O - 10 -
16.04.2019 05:00:00 6,7 5,7 13 7 OSO 1018,1 10 0,0
16.04.2019 04:00:00 7,0 6,0 11 6 OSO - 10 -
16.04.2019 03:00:00 8,0 7,0 11 6 ONO - 10 -
16.04.2019 02:00:00 7,0 6,0 5 3 OSO 1017,7 10 -
16.04.2019 01:00:00 9,0 6,0 11 6 SSO - 10 -
16.04.2019 00:00:00 10,0 6,0 11 6 O - 10 -
15.04.2019 23:00:00 11,6 6,4 9 5 S 1017,5 10 0,0
15.04.2019 22:00:00 13,0 6,0 13 7 S - 10 -
15.04.2019 21:00:00 14,0 8,0 13 7 S - 10 -
15.04.2019 20:00:00 15,6 6,2 8 4 - 1014,0 10 -
15.04.2019 19:00:00 18,0 7,0 5 3 NNO - 10 -
15.04.2019 18:00:00 17,0 8,0 24 13 E - 10 -
15.04.2019 17:00:00 15,9 9,8 21 11 ENE 1011,8 10 0,0
15.04.2019 16:00:00 17,0 9,0 15 8 E - 10 -
15.04.2019 15:00:00 17,0 7,0 18 10 E - 10 -
15.04.2019 14:00:00 16,0 7,0 21 11 E - 10 -
15.04.2019 13:00:00 16,0 7,0 15 8 E - 10 -
15.04.2019 12:00:00 16,0 7,0 15 8 E - 10 -
15.04.2019 11:00:00 14,2 7,3 21 11 E 1009,4 10 0,0
15.04.2019 10:00:00 14,0 9,0 13 7 ENE - 10 -
15.04.2019 09:00:00 13,0 10,0 16 9 NE - 10 -
15.04.2019 08:00:00 10,9 10,2 8 4 SO 1008,9 10 -
15.04.2019 07:00:00 11,0 10,0 15 8 OSO - 4,0 -
15.04.2019 06:00:00 10,0 9,0 8 4 O - 10 -
15.04.2019 05:00:00 9,8 8,7 11 6 SO 1010,0 10 0,0
15.04.2019 04:00:00 10,0 8,0 11 6 O - 10 -
15.04.2019 03:00:00 10,0 9,0 13 7 O - 10 -
15.04.2019 02:00:00 11,0 9,6 13 7 O 1011,9 10 -
15.04.2019 01:00:00 10,0 10,0 9 5 O - 10 -
15.04.2019 00:00:00 10,0 10,0 11 6 SSO - 10 -
14.04.2019 23:00:00 10,4 9,6 9 5 O 1013,2 10 0,0
14.04.2019 22:00:00 11,0 10,0 15 8 O - 10 -
14.04.2019 21:00:00 11,0 10,0 11 6 O - 10 -
14.04.2019 20:00:00 12,7 10,8 8 4 O 1012,9 10 -
14.04.2019 19:00:00 15,0 11,0 5 3 SO - 10 -
14.04.2019 18:00:00 15,0 12,0 13 7 SO - 10 -
14.04.2019 17:00:00 15,1 10,6 8 4 E 1012,7 10 0,0
14.04.2019 16:00:00 15,0 12,0 8 4 ENE - 8 -
14.04.2019 15:00:00 17,0 10,0 16 9 ENE - 10 -
14.04.2019 14:00:00 16,3 9,1 24 13 ENE 1012,7 10 -
14.04.2019 13:00:00 21,0 7,0 24 13 O - 10 -
14.04.2019 12:00:00 19,0 8,0 22 12 OSO - 10 -
14.04.2019 11:00:00 18,0 7,6 13 7 OSO 1013,2 10 0,0
14.04.2019 10:00:00 15,0 9,0 15 8 O - 10 -
14.04.2019 09:00:00 13,0 10,0 16 9 O - 10 -
14.04.2019 08:00:00 11,1 9,4 16 9 O 1012,8 10 -
14.04.2019 07:00:00 8,0 7,0 15 8 O - 10 -
14.04.2019 06:00:00 8,0 7,0 15 8 O - 10 -
14.04.2019 05:00:00 7,6 7,0 15 8 O 1012,1 10 0,0
14.04.2019 04:00:00 9,0 8,0 5 3 O - 10 -
14.04.2019 03:00:00 8,0 7,0 11 6 O - 10 -
14.04.2019 02:00:00 8,7 7,7 15 8 O 1012,5 10 -
14.04.2019 01:00:00 9,0 8,0 13 7 O - 10 -
14.04.2019 00:00:00 11,0 9,0 13 7 ONO - 10 -
13.04.2019 23:00:00 10,0 9,5 13 7 SSO 1012,3 10 0,0
13.04.2019 22:00:00 11,0 11,0 9 5 O - 10 -
13.04.2019 21:00:00 13,0 10,0 8 4 O - 10 -
13.04.2019 20:00:00 13,7 12,1 4 2 - 1011,9 10 -
13.04.2019 19:00:00 14,0 12,0 5 3 NE - 10 -
13.04.2019 18:00:00 14,0 12,0 11 6 NE - 8 -
13.04.2019 17:00:00 14,6 12,6 5 3 - 1011,3 7 0,0

tt = Temperatura
td = dewpoint
ff = velocità del vento
dd = direzione del vento
ppp = reduced air pressure
vv = visibility
rr = precipitazioni

Stazioni seguenti

WeatherPro
AMSI
MeteoEarth